Year,Month,Day,Hour,Minute,Value (Times are PST for temperature in C)
2023,04,20,00,03,4.60
2023,04,20,00,08,4.60
2023,04,20,00,13,4.50
2023,04,20,00,18,4.60
2023,04,20,00,23,4.80
2023,04,20,00,28,4.80
2023,04,20,00,33,4.70
2023,04,20,00,38,4.70
2023,04,20,00,43,4.70
2023,04,20,00,48,4.80
2023,04,20,00,53,5.00
2023,04,20,00,58,5.10
2023,04,20,01,03,5.20
2023,04,20,01,08,5.20
2023,04,20,01,13,5.20
2023,04,20,01,18,5.20
2023,04,20,01,23,5.20
2023,04,20,01,28,5.10
2023,04,20,01,33,5.10
2023,04,20,01,38,5.10
2023,04,20,01,43,5.10
2023,04,20,01,48,5.10
2023,04,20,01,53,5.20
2023,04,20,01,58,5.20
2023,04,20,02,03,5.20
2023,04,20,02,08,5.20
2023,04,20,02,13,5.30
2023,04,20,02,18,5.30
2023,04,20,02,23,5.20
2023,04,20,02,28,5.30
2023,04,20,02,33,5.30
2023,04,20,02,38,5.30
2023,04,20,02,43,5.30
2023,04,20,02,48,5.30
2023,04,20,02,53,5.30
2023,04,20,02,58,5.30
2023,04,20,03,03,5.30
2023,04,20,03,08,5.30
2023,04,20,03,13,5.30
2023,04,20,03,18,5.20
2023,04,20,03,23,5.20
2023,04,20,03,28,5.10
2023,04,20,03,33,5.00
2023,04,20,03,38,5.00
2023,04,20,03,43,4.90
2023,04,20,03,48,4.80
2023,04,20,03,53,4.70
2023,04,20,03,58,4.70
2023,04,20,04,03,4.70
2023,04,20,04,08,4.60
2023,04,20,04,13,4.60
2023,04,20,04,18,4.50
2023,04,20,04,23,4.40
2023,04,20,04,28,4.40
2023,04,20,04,33,4.20
2023,04,20,04,38,4.20
2023,04,20,04,43,4.20
2023,04,20,04,48,4.10
2023,04,20,04,53,4.20
2023,04,20,04,58,4.20
2023,04,20,05,03,4.10
2023,04,20,05,08,4.00
2023,04,20,05,13,4.00
2023,04,20,05,18,4.00
2023,04,20,05,23,4.00
2023,04,20,05,28,4.00
2023,04,20,05,33,3.90
2023,04,20,05,38,3.90
2023,04,20,05,43,3.80
2023,04,20,05,48,3.80
2023,04,20,05,53,3.80
2023,04,20,05,58,3.70
2023,04,20,06,03,3.60
2023,04,20,06,08,3.70
2023,04,20,06,13,3.70
2023,04,20,06,18,3.60
2023,04,20,06,23,3.60
2023,04,20,06,28,3.60
2023,04,20,06,33,3.60
2023,04,20,06,38,3.60
2023,04,20,06,43,3.60
2023,04,20,06,48,3.70
2023,04,20,06,53,3.70
2023,04,20,06,58,3.70
2023,04,20,07,03,3.70
2023,04,20,07,08,3.80
2023,04,20,07,13,3.80
2023,04,20,07,18,4.00
2023,04,20,07,23,4.00
2023,04,20,07,28,4.10
2023,04,20,07,33,4.20
2023,04,20,07,38,4.10
2023,04,20,07,43,4.20
2023,04,20,07,48,4.30
2023,04,20,07,53,4.20
2023,04,20,07,58,4.20
2023,04,20,08,03,4.30
2023,04,20,08,08,4.40
2023,04,20,08,13,4.40
2023,04,20,08,18,4.40
2023,04,20,08,23,4.40
2023,04,20,08,28,4.60
2023,04,20,08,33,4.60
2023,04,20,08,38,4.80
2023,04,20,08,43,4.90
2023,04,20,08,48,5.00
2023,04,20,08,53,5.20
2023,04,20,08,58,5.30
2023,04,20,09,03,5.30
2023,04,20,09,08,5.30
2023,04,20,09,13,5.50
2023,04,20,09,18,5.90
2023,04,20,09,23,5.90
2023,04,20,09,28,6.10
2023,04,20,09,33,6.20
2023,04,20,09,38,6.30
2023,04,20,09,43,6.30
2023,04,20,09,48,6.10
2023,04,20,09,53,6.10
2023,04,20,09,58,6.10
2023,04,20,10,03,6.30
2023,04,20,10,08,6.30
2023,04,20,10,13,6.20
2023,04,20,10,18,6.30
2023,04,20,10,23,6.30
2023,04,20,10,28,6.10
2023,04,20,10,33,6.20
2023,04,20,10,38,6.40
2023,04,20,10,43,6.40
2023,04,20,10,48,6.50
2023,04,20,10,53,6.50
2023,04,20,10,58,6.30
2023,04,20,11,03,6.40
2023,04,20,11,08,6.20
2023,04,20,11,13,6.20
2023,04,20,11,18,6.20
2023,04,20,11,23,6.20
2023,04,20,11,28,6.00
2023,04,20,11,33,6.20
2023,04,20,11,38,6.20
2023,04,20,11,43,6.20
2023,04,20,11,48,6.10
2023,04,20,11,53,6.10
2023,04,20,11,58,6.30
2023,04,20,12,03,6.40
2023,04,20,12,08,6.60
2023,04,20,12,13,6.60
2023,04,20,12,18,6.50
2023,04,20,12,23,6.50
2023,04,20,12,28,6.60
2023,04,20,12,33,6.80
2023,04,20,12,38,7.00
2023,04,20,12,43,7.20
2023,04,20,12,48,7.00
2023,04,20,12,53,7.10
2023,04,20,12,58,7.20
2023,04,20,13,03,7.20
2023,04,20,13,08,7.40
2023,04,20,13,13,7.20
2023,04,20,13,18,7.10
2023,04,20,13,23,7.00
2023,04,20,13,28,7.00
2023,04,20,13,33,6.90
2023,04,20,13,38,6.80
2023,04,20,13,43,6.50
2023,04,20,13,48,6.50
2023,04,20,13,53,6.50
2023,04,20,13,58,6.50
2023,04,20,14,03,6.40
2023,04,20,14,08,6.20
2023,04,20,14,13,6.10
2023,04,20,14,18,6.10
2023,04,20,14,23,6.30
2023,04,20,14,28,6.10
2023,04,20,14,33,6.00
2023,04,20,14,38,6.00
2023,04,20,14,43,5.80
2023,04,20,14,48,5.80
2023,04,20,14,53,5.80
2023,04,20,14,58,5.70
2023,04,20,15,03,5.70
2023,04,20,15,08,5.70
2023,04,20,15,13,5.60
2023,04,20,15,18,5.40
2023,04,20,15,23,5.40
2023,04,20,15,28,5.30
2023,04,20,15,33,5.30
2023,04,20,15,38,5.30
2023,04,20,15,43,5.30
2023,04,20,15,48,5.30
2023,04,20,15,53,5.20
2023,04,20,15,58,5.20
2023,04,20,16,03,5.10
2023,04,20,16,08,5.10
2023,04,20,16,13,5.10
2023,04,20,16,18,5.10
2023,04,20,16,23,5.10
2023,04,20,16,28,4.90
2023,04,20,16,33,4.90
2023,04,20,16,38,5.00
2023,04,20,16,43,5.10
2023,04,20,16,48,5.00
2023,04,20,16,53,5.00
2023,04,20,16,58,4.90
2023,04,20,17,03,4.80
2023,04,20,17,08,4.90
2023,04,20,17,13,4.90
2023,04,20,17,18,4.90
2023,04,20,17,23,4.90
2023,04,20,17,28,4.90
2023,04,20,17,33,4.90
2023,04,20,17,38,4.90
2023,04,20,17,43,4.90
2023,04,20,17,48,5.00
2023,04,20,17,53,5.10
2023,04,20,17,58,5.10
2023,04,20,18,03,5.10
2023,04,20,18,08,5.20
2023,04,20,18,13,5.20
2023,04,20,18,18,5.10
2023,04,20,18,23,5.20
2023,04,20,18,28,5.20
2023,04,20,18,33,5.30
2023,04,20,18,38,5.20
2023,04,20,18,43,5.20
2023,04,20,18,48,5.20
2023,04,20,18,53,5.20
2023,04,20,18,58,5.20
2023,04,20,19,03,5.20
2023,04,20,19,08,5.10
2023,04,20,19,13,5.10
2023,04,20,19,18,5.00
2023,04,20,19,23,5.00
2023,04,20,19,28,5.00
2023,04,20,19,33,5.00
2023,04,20,19,38,5.10
2023,04,20,19,43,5.10
2023,04,20,19,48,5.20
2023,04,20,19,53,5.30
2023,04,20,19,58,5.30
2023,04,20,20,03,5.30
2023,04,20,20,08,5.20
2023,04,20,20,13,5.20
2023,04,20,20,18,5.20
2023,04,20,20,23,5.20
2023,04,20,20,28,5.10
2023,04,20,20,33,5.10
2023,04,20,20,38,4.90
2023,04,20,20,43,4.90
2023,04,20,20,48,4.80
2023,04,20,20,53,4.70
2023,04,20,20,58,4.50
2023,04,20,21,03,4.50
2023,04,20,21,08,4.30
2023,04,20,21,13,4.30
2023,04,20,21,18,4.20
2023,04,20,21,23,4.20
2023,04,20,21,28,4.20
2023,04,20,21,33,4.30
2023,04,20,21,38,4.10
2023,04,20,21,43,4.10
2023,04,20,21,48,4.20
2023,04,20,21,53,4.30
2023,04,20,21,58,4.40
2023,04,20,22,03,4.40
2023,04,20,22,08,4.40
2023,04,20,22,13,4.40
2023,04,20,22,18,4.50
2023,04,20,22,28,4.50
2023,04,20,22,33,4.40
2023,04,20,22,38,4.40
2023,04,20,22,43,4.40
2023,04,20,22,48,4.50
2023,04,20,22,53,4.50
2023,04,20,22,58,4.50
2023,04,20,23,03,4.50
2023,04,20,23,08,4.50
2023,04,20,23,13,4.50
2023,04,20,23,18,4.50
2023,04,20,23,23,4.60
2023,04,20,23,28,4.60
2023,04,20,23,33,4.70
2023,04,20,23,43,4.70
2023,04,20,23,48,4.80
2023,04,20,23,53,4.80
2023,04,20,23,58,4.80
